Location: Newark
(34.1333°N, 7.9667°W)
Time: 02:20:52
(UTC+00:00)

Courier 1B - Visible Passes

Search period start: 04 December 2021 00:00
Search period end: 14 December 2021 00:00
Orbit: 962 x 1209 km, 28.3° (Epoch: 03 December)

Date Brightness Start Highest point End Pass type
(mag) Time Alt. Az. Time Alt. Az. Time Alt. Az.
04 Dec 8.1 19:12:24 10° W 19:19:31 54° S 19:22:15 35° SE visible
04 Dec 9.7 21:06:54 10° W 21:09:09 20° WSW 21:09:09 20° WSW visible
05 Dec 8.3 18:18:24 10° WSW 18:25:42 55° S 18:32:00 13° ESE visible
05 Dec 8.5 20:12:48 10° W 20:18:54 41° SSW 20:18:54 41° SSW visible
06 Dec 8.4 19:18:44 10° W 19:25:46 48° SSW 19:28:41 31° SE visible
06 Dec 9.9 21:13:42 10° WSW 21:15:36 17° WSW 21:15:36 17° WSW visible
07 Dec 8.4 18:24:41 10° W 18:31:59 53° S 18:38:33 11° ESE visible
07 Dec 8.9 20:19:23 10° W 20:25:28 32° SSW 20:25:28 32° SSW visible
08 Dec 8.8 19:25:11 10° W 19:31:57 38° SSW 19:35:25 24° SSE visible
08 Dec 10.1 21:21:14 10° WSW 21:22:20 12° WSW 21:22:20 12° WSW visible
09 Dec 8.7 18:31:03 10° W 18:38:12 45° SSW 18:44:57 10° SE visible
09 Dec 9.4 20:26:24 10° WSW 20:31:42 22° SSW 20:32:23 21° SSW visible
10 Dec 9.3 19:31:54 10° W 19:38:02 28° SSW 19:42:33 15° SSE visible
11 Dec 9.2 18:37:35 10° W 18:44:20 34° SSW 18:50:45 10° SE visible
11 Dec 10.0 20:34:33 10° WSW 20:37:38 13° SSW 20:39:48 11° SSW visible
12 Dec 9.1 17:43:23 10° W 17:50:33 41° SSW 17:57:24 10° SE visible
12 Dec 9.9 19:39:12 10° WSW 19:44:01 18° SSW 19:48:42 10° SSE visible
13 Dec 9.8 18:44:28 10° WSW 18:50:21 24° SSW 18:56:01 10° SSE visible
